Flag for Germany Weather past 2 weeks in Wuppertal, North Rhine-Westphalia, Germany

Now
57 °F

Overcast.


Feels Like: 54 °F
Forecast: 49 / 56 °F
Wind: 13 mph from South

Location: Duesseldorf

Current Time: Oct 24, 2014 at 8:58:54 PM

Latest Report: Oct 24, 2014 at 8:20 PM


Visibility: N/A

Pressure: 30.07 "Hg

Humidity: 63%

Dew point: 45 °F

Location of WuppertalLocation

Historic Weather in Wuppertal — Graph

°F

Wuppertal temperature yesterday

Maximum temperature yesterday: 57 °F (at 4:20 PM)
Minimum temperature yesterday: 48 °F (at 12:20 AM)
Average temperature yesterday: 52 °F

Past Weeks' High & Low Weather Summary

 TemperatureHumidityPressure
High75 °F (Oct 19, 2:20 PM)100% (Oct 11, 4:50 AM)30.21 "Hg (Oct 11, 4:50 AM)
Low45 °F (Oct 21, 10:50 PM)49% (Oct 14, 2:20 PM)29.50 "Hg (Oct 21, 3:20 PM)
Average57 °F80%29.91 "Hg
* Reported Oct 9 7:20 PM — Oct 24 7:20 PM, Wuppertal, Weather by CustomWeather, © 2014

Note: Actual official high and low records may vary slightly from our data, if they occured in-between our weather recording intervals... More about our weather records

Advertising

Wuppertal weather history for previous 24 hours

 ConditionsComfort  
Time TempWeatherWind HumidityBarometerVisibility
7:20 PM
Oct 24
57 °FOvercast.12 mph63%30.07 "HgN/A
6:50 PM57 °FPartly sunny.12 mph63%30.07 "HgN/A
6:20 PM57 °FPartly sunny.10 mph63%30.07 "HgN/A
5:50 PM57 °FPartly sunny.9 mph67%30.07 "HgN/A
5:20 PM57 °FPartly sunny.9 mph63%30.07 "HgN/A
4:50 PM57 °FBroken clouds.12 mph67%30.07 "HgN/A
4:20 PM57 °FBroken clouds.13 mph63%30.07 "HgN/A
3:50 PM57 °FPartly sunny.15 mph63%30.09 "HgN/A
3:20 PM55 °FPartly sunny.13 mph72%30.09 "HgN/A
2:50 PM55 °FPartly sunny.12 mph72%30.09 "HgN/A
2:20 PM55 °FPartly sunny.13 mph72%30.12 "HgN/A
1:50 PM55 °FPartly sunny.15 mph72%30.12 "HgN/A
1:20 PM55 °FBroken clouds.14 mph72%30.12 "HgN/A
12:50 PM55 °FBroken clouds.13 mph72%30.15 "HgN/A
12:20 PM55 °FMostly cloudy.13 mph72%30.15 "HgN/A
11:50 AM55 °FPartly sunny.13 mph67%30.15 "HgN/A
11:20 AM55 °FPartly sunny.12 mph67%30.15 "HgN/A
10:50 AM54 °FPartly sunny.13 mph72%30.15 "HgN/A
10:20 AM54 °FBroken clouds.13 mph77%30.15 "HgN/A
9:50 AM54 °FBroken clouds.9 mph77%30.15 "HgN/A
9:20 AM54 °FPartly sunny.8 mph77%30.15 "HgN/A
8:50 AM54 °FPassing clouds.9 mph77%30.15 "HgN/A
8:20 AM54 °FPassing clouds.9 mph77%30.15 "HgN/A
7:50 AM54 °FPassing clouds.10 mph77%30.15 "HgN/A
7:20 AM54 °FOvercast.10 mph77%30.15 "HgN/A
6:50 AM54 °FMostly cloudy.8 mph77%30.15 "HgN/A
6:20 AM54 °FPassing clouds.7 mph77%30.15 "HgN/A
5:50 AM54 °FPassing clouds.8 mph77%30.15 "HgN/A
5:20 AM54 °FPassing clouds.9 mph77%30.15 "HgN/A
4:50 AM54 °FPassing clouds.9 mph77%30.15 "HgN/A
4:20 AM54 °FPassing clouds.8 mph82%30.15 "HgN/A
3:50 AM54 °FPassing clouds.7 mph82%30.15 "HgN/A
3:20 AM54 °FPassing clouds.7 mph82%30.15 "HgN/A
2:50 AM54 °FPassing clouds.8 mph82%30.18 "HgN/A
2:20 AM54 °FPassing clouds.7 mph82%30.18 "HgN/A
1:50 AM54 °FPassing clouds.8 mph82%30.18 "HgN/A
1:20 AM54 °FPassing clouds.7 mph82%30.18 "HgN/A
12:50 AM54 °FPassing clouds.7 mph82%30.18 "HgN/A
12:20 AM54 °FPassing clouds.7 mph82%30.18 "HgN/A
11:50 PM
Oct 23
54 °FPassing clouds.7 mph82%30.18 "HgN/A
11:20 PM54 °FPassing clouds.8 mph82%30.18 "HgN/A
10:50 PM54 °FPassing clouds.8 mph82%30.18 "HgN/A
10:20 PM54 °FPassing clouds.8 mph82%30.21 "HgN/A
9:50 PM55 °FPassing clouds.9 mph77%30.18 "HgN/A
9:20 PM55 °FOvercast.9 mph77%30.18 "HgN/A
8:50 PM55 °FOvercast.8 mph77%30.18 "HgN/A
8:20 PM55 °FPassing clouds.7 mph77%30.18 "HgN/A
Weather by CustomWeather, © 2014

See weather overviewHow to use our weather pages